Погода в Крестцах

Россия / Новгородская область     58°14′48″N   32°30′48″E
темп.,
°C
ветер,
м/с
пор.,
м/с
влажн.,
%
обл.,
%
осадки,
мм/ч
давл.,
гПа
погр.,
м
8 августа, пн
пн800:00+12ю117537 0.0 102210
03:00+11ююв2281100 0.0 102323
06:00+12ю118099 0.0 102332
09:00+17ююз1161100 0.0 1024301
12:00+21ююз114598 0.0 10231338
15:00+23ю113972 0.0 10232192
18:00+21сз114539 0.0 10221372
21:00+16всв226822 0.0 102336
9 августа, вт
вт900:00+13с247563 0.0 102366
03:00+13ссв258397 0.0 1023119
06:00+14ссв2682100 0.0 1024203
09:00+15с2679100 0.0 1025304
12:00+15с3580100 0.1 1025225
15:00+19ссв336318 0.1 1025675
18:00+19ссв23599 0.1 1024853
21:00+14ссв22865 0.1 102514
10 августа, ср
ср1000:00+12ссв23914 0.0 102545
03:00+10ссв22952 0.0 102619
06:00+10ссв23945 0.0 102666
09:00+17св23590 0.0 1026494
12:00+21с23420 0.0 10261908
15:00+22с22365 0.0 10252196
18:00+22с2244100 0.0 10251669
21:00+15ссз2268100 0.0 102613
11 августа, чт
чт1100:00+13ссв1169100 0.0 102610
03:00+11ююв00745 0.0 102610
06:00+11ююз117711 0.0 102714
09:00+18юз235539 0.0 1027344
12:00+22юз33415 0.0 10261544
15:00+23зюз3438100 0.0 10251742
18:00+22з3549100 0.0 1024963
21:00+17юз2469100 0.0 102464
12 августа, пт
пт1200:00+14юз267832 0.0 1024112
03:00+13юз27845 0.0 1024142
06:00+13юз27875 0.0 1024161
09:00+20з36635 0.0 1025554
12:00+23з45493 0.0 10251058
15:00+25з34455 0.0 10241211
18:00+24з245222 0.0 10231055
21:00+18юз22745 0.0 102315